Regional Weather Roundup
Issued by NWS Sioux Falls, SD

Home | Current Version | Previous Version | Graphics & Text | Print | Product List | Glossary Off
Versions: 1 2 3 4 5 6 7 8 9 10 11 12 13 14 15 16 17 18 19 20 21 22 23 24 25 26 27 28 29 30 31 32 33 34 35 36 37 38 39 40 41 42 43 44 45 46 47 48 49 50

000
ASUS43 KFSD 291902
RWRFSD

WEATHER ROUNDUP FOR SE SOUTH DAKOTA/SW MINNESOTA/NW IOWA
NATIONAL WEATHER SERVICE SIOUX FALLS SD
200 PM CDT FRI AUG 29 2014

NOTE: "FAIR" INDICATES FEW OR NO CLOUDS BELOW 12,000 FEET WITH NO
SIGNIFICANT WEATHER AND OR OBSTRUCTIONS TO VISIBILITY.


SDZ038>040-050-052>070-292000-
SOUTHEAST SOUTH DAKOTA

CITY           SKY/WX    TMP DP  RH WIND       PRES   REMARKS
CHAMBERLAIN    SUNNY     80  63  56 N7        29.82S
HURON          PTSUNNY   78  66  66 VRB5      29.79F
MADISON        MOCLDY    73  72  94 NE7       29.80F
MITCHELL       PTSUNNY   77  68  73 NW8       29.80F
SIOUX FALLS    CLOUDY    75  69  81 S10       29.78F
WINNER         FAIR      83  61  47 N10       29.83F
YANKTON        CLOUDY    73  66  78 CALM      29.78F
$$

MNZ071-072-080-081-089-090-097-098-292000-
SOUTHWEST MINNESOTA

CITY           SKY/WX    TMP DP  RH WIND       PRES   REMARKS
FAIRMONT       CLOUDY    70  66  88 S7        29.79F
JACKSON        CLOUDY    72  68  88 SW6       29.81S
LUVERNE        RAIN      72  68  88 W7        29.80F
MARSHALL       CLOUDY    73  66  78 N10       29.77S
MONTEVIDEO     CLOUDY    75  75 100 CALM      29.78F
PIPESTONE      CLOUDY    73  68  83 SW6       29.80R
REDWOOD FALLS  CLOUDY    74  71  91 N5        29.76F
TRACY          CLOUDY    76  70  82 CALM      29.78S
WINDOM         CLOUDY    73  68  83 SW8       29.80S
WORTHINGTON    CLOUDY    72  70  94 SW6       29.81F
$$

IAZ001>003-012>014-020>022-031-032-NEZ013-014-SDZ071-292000-
NORTHWEST IOWA

CITY           SKY/WX    TMP DP  RH WIND       PRES   REMARKS
CHEROKEE       CLOUDY    71  71  99 S5        29.81F
DENISON        CLOUDY    72  72 100 SW7       29.79F
ESTHERVILLE    CLOUDY    74  70  87 SW8       29.80F
LE MARS        LGT RAIN  68  68 100 NW3       29.80F
ORANGE CITY    LGT RAIN  72  66  83 W7        29.82S
SHELDON        CLOUDY    72  70  94 W7        29.79F
SIOUX CITY       N/A     74  68  81 N5        29.80S
SPENCER        CLOUDY    73  68  84 SW12      29.81S
STORM LAKE     LGT RAIN  72  72 100 W7        29.81F
$$

ABBREVIATIONS USED IN REMARKS
   TC - TEMPERATURE IN CELSIUS
  WCI - WIND CHILL INDEX
   HX - HEAT INDEX
  VSB - VISIBILITY




USA.gov is the U.S. government's official web portal to all federal, state and local government web resources and services.